Flag for Hungary Weather past 2 weeks in Pécs, Hungary

Now
47 °F

Overcast.


Feels Like: 43 °F
Forecast: 38 / 52 °F
Wind: 8 mph from North

Location: Pecs / Pogany


UV Index: 0 (Low)

Visibility: 19 mi


Pressure: 30.10 "Hg

Humidity: 70%

Dew point: 37 °F

Location of PécsLocation

Historic Weather in Pécs

°F

Pécs temperature yesterday

Maximum temperature yesterday: 52 °F (at 1:00 PM)
Minimum temperature yesterday: 43 °F (at 11:00 PM)
Average temperature yesterday: 47 °F

Past Weeks' High & Low Weather Summary

 TemperatureHumidityPressure
High73 °F (Apr 8, 5:00 PM)94% (Apr 6, 7:00 AM)30.16 "Hg (Apr 6, 7:00 AM)
Low37 °F (Apr 10, 7:00 AM)32% (Apr 1, 5:00 PM)29.72 "Hg (Apr 5, 4:00 AM)
Average54 °F62%29.98 "Hg
* Reported Apr 1 10:00 AM — Apr 16 10:00 AM, Pécs, Weather by CustomWeather, © 2014

Note: Actual official high and low records may vary slightly from our data, if they occured in-between our weather recording intervals... More about our weather records

Advertising

Historic Weather Conditions — Data for Previous 24 hours

 ConditionsComfort  
Time TempWeatherWind HumidityBarometerVisibility
10:00 AM
Apr 16
47 °FOvercast.8 mph70%30.10 "Hg19 mi
9:00 AM44 °FOvercast.9 mph74%30.10 "Hg16 mi
8:00 AM42 °FOvercast.8 mph79%30.10 "Hg12 mi
7:00 AM41 °FScattered clouds.6 mph81%30.09 "Hg12 mi
6:00 AM41 °FScattered clouds.8 mph80%30.07 "Hg37 mi
4:00 AM42 °FOvercast.9 mph76%30.05 "Hg37 mi
3:00 AM42 °FOvercast.7 mph78%30.05 "Hg37 mi
2:00 AM42 °FPassing clouds.8 mph78%30.06 "Hg37 mi
11:00 PM
Apr 15
43 °FOvercast.5 mph79%30.06 "Hg37 mi
10:00 PM44 °FOvercast.7 mph74%30.06 "Hg37 mi
9:00 PM43 °FOvercast.6 mph74%30.05 "Hg37 mi
8:00 PM44 °FOvercast.6 mph70%30.03 "Hg37 mi
7:00 PM45 °FScattered clouds.10 mph63%30.01 "Hg37 mi
6:00 PM48 °FSprinkles. Partly sunny.8 mph53%30.00 "Hg37 mi
5:00 PM50 °FSprinkles. Partly sunny.8 mph41%30.00 "Hg37 mi
4:00 PM51 °FPartly sunny.8 mph39%30.01 "Hg37 mi
3:00 PM50 °FOvercast.7 mph39%30.01 "Hg37 mi
2:00 PM50 °FOvercast.8 mph42%30.01 "Hg37 mi
1:00 PM52 °FOvercast.8 mph45%30.01 "Hg37 mi
12:00 PM49 °FOvercast.8 mph60%30.01 "Hg37 mi
11:00 AM48 °FOvercast.6 mph56%30.01 "Hg37 mi
Weather by CustomWeather, © 2014

See weather overview